Weather in Novoguryevskoye

Russia / Kaliningrad Oblast     54°27′51″N   21°59′06″E
temp.,
°C
wind,
m/s
gust,
m/s
humid.,
%
clouds,
%
prec.,
mm/h
press.,
hPa
HPBL,
m
16 june, wed
wed1623:00+8nw23945 0.0 101942
02:00+7nw119499 0.0 102010
05:00+8nnw00947 0.0 102010
08:00+14ne117433 0.0 1020315
11:00+18nne115883 0.0 10211006
14:00+20nne225411 0.0 10211294
17:00+20nne22575 0.0 10201146
20:00+17ese11755 0.0 102111
17 june, thu
thu1723:00+12se22865 0.0 102212
02:00+11se22900 0.0 102311
05:00+11se22890 0.0 102334
08:00+17se34710 0.0 1023344
11:00+21se34582 0.0 10241133
14:00+23se34505 0.0 10231307
17:00+23sse34600 0.0 10221030
20:00+19sse34771 0.0 102261
18 june, fri
fri1823:00+15sse36830 0.0 102387
02:00+14sse49870 0.0 1023135
05:00+14sse49895 0.0 1022155
08:00+20sse47745 0.0 1022365
11:00+25sse46635 0.0 10221176
14:00+27sse56565 0.0 10211707
17:00+26sse56655 0.0 10201177
20:00+22sse38815 0.0 1020187
19 june, sat
sat1923:00+19sse410815 0.0 1021199
02:00+17sse4109210 0.0 1021194
05:00+17sse410885 0.0 1020203
08:00+22s58745 0.0 1020387
11:00+26s57615 0.0 10201216
14:00+27sse56550 0.0 10191554
17:00+28sse46645 0.0 10181542
20:00+23se38810 0.0 1017201
20 june, sun
sun2023:00+21sse511783 0.0 1018234
02:00+19sse410885 0.0 1018183
05:00+19s411905 0.0 1018247
08:00+23s58733 0.0 1018417
11:00+26s565837 0.0 10181156
14:00+27s4553100 0.0 10171710
17:00+27s3564100 0.0 10161096
20:00+23sse357829 0.1 101696